Home > Weather > Périgueux > Past weeks

Flag for France Weather for the Past 2 Weeks in Périgueux, Aquitaine, France

Now
39 °F

Clear.


Feels Like: 39 °F
Forecast: 46 / 80 °F
Wind: 2 mph from East

Location: Bergerac Airport

Current Time: May 4, 2016 at 4:37:40 AM

Latest Report: May 4, 2016 at 4:00 AM


Visibility: 10 mi

Pressure: 30.24 "Hg

Humidity: 93%

Dew Point: 37 °F

Location of PérigueuxLocation

Historic Weather in Périgueux — Graph

°F

Périgueux Temperature Yesterday

Maximum temperature yesterday: 68 °F (at 5:30 PM)
Minimum temperature yesterday: 45 °F (at 3:00 AM)
Average temperature yesterday: 55 °F

High & Low Weather Summary for the Past Weeks

 TemperatureHumidityPressure
High73 °F (Apr 20, 4:30 PM)100% (Apr 21, 5:30 PM)30.42 "Hg (Apr 21, 5:30 PM)
Low32 °F (Apr 29, 6:30 AM)29% (Apr 19, 4:00 PM)29.89 "Hg (Apr 26, 1:30 PM)
Average53 °F70%30.10 "Hg
* Reported Apr 19 3:00 AM — May 4 3:30 AM, Périgueux, Weather by CustomWeather, © 2016

Note: Actual official high and low records may vary slightly from our data, if they occured in-between our weather recording intervals... More about our weather records

Advertising

Périgueux Weather History for the Previous 24 Hours

Scroll right to see more
 ConditionsComfort  
Time TempWeatherWind HumidityBarometerVisibility
3:30 AM
Wed, May 4
39 °FClear.No wind93%30.24 "Hg10 mi
3:00 AM39 °FClear.No wind93%30.24 "Hg10 mi
2:30 AM41 °FClear.No wind87%30.27 "Hg10 mi
2:00 AM43 °FClear.No wind87%30.27 "Hg10 mi
1:30 AM43 °FClear.No wind93%30.27 "Hg10 mi
1:00 AM45 °FClear.2 mph93%30.27 "Hg10 mi
12:30 AM45 °FClear.1 mph93%30.27 "Hg10 mi
12:00 AM46 °FClear.No wind87%30.27 "Hg10 mi
11:30 PM
Tue, May 3
46 °FClear.No wind93%30.27 "Hg10 mi
11:00 PM48 °FClear.2 mph87%30.27 "Hg10 mi
10:30 PM50 °FClear.3 mph88%30.27 "Hg10 mi
10:00 PM54 °FSunny.1 mph82%30.27 "Hg10 mi
9:30 PM55 °FSunny.3 mph72%30.27 "Hg10 mi
9:00 PM59 °FPassing clouds.5 mph63%30.24 "HgN/A
8:30 PM61 °FScattered clouds.7 mph59%30.24 "HgN/A
8:00 PM61 °FSunny.7 mph63%30.24 "Hg10 mi
7:30 PM64 °FSunny.8 mph56%30.24 "Hg10 mi
7:00 PM66 °FSunny.10 mph49%30.24 "Hg10 mi
6:30 PM64 °FMostly cloudy.9 mph56%30.24 "HgN/A
6:00 PM64 °FSunny.10 mph56%30.24 "Hg10 mi
5:30 PM68 °FPassing clouds.9 mph49%30.27 "HgN/A
5:00 PM64 °FMostly cloudy.8 mph56%30.27 "HgN/A
4:30 PM64 °FPassing clouds.9 mph52%30.27 "HgN/A
4:00 PM64 °FBroken clouds.5 mph56%30.27 "HgN/A
3:30 PM64 °FPartly sunny.10 mph56%30.30 "HgN/A
3:00 PM64 °FMore clouds than sun.8 mph56%30.30 "HgN/A
2:30 PM63 °FMostly cloudy.5 mph59%30.30 "HgN/A
1:30 PM63 °FBroken clouds.2 mph59%30.30 "HgN/A
1:00 PM63 °FScattered clouds.1 mph64%30.33 "HgN/A
12:30 PM59 °FMostly cloudy.3 mph68%30.33 "HgN/A
12:00 PM61 °FMostly cloudy.2 mph68%30.33 "HgN/A
11:30 AM59 °FOvercast.5 mph72%30.33 "HgN/A
11:00 AM57 °FOvercast.6 mph77%30.33 "HgN/A
10:30 AM55 °FOvercast.5 mph77%30.33 "HgN/A
10:00 AM54 °FOvercast.6 mph82%30.33 "HgN/A
9:30 AM54 °FOvercast.6 mph82%30.33 "HgN/A
9:00 AM52 °FOvercast.6 mph88%30.33 "HgN/A
8:30 AM50 °FOvercast.6 mph94%30.33 "HgN/A
8:00 AM50 °FOvercast.5 mph94%30.33 "HgN/A
7:30 AM48 °FMostly cloudy.6 mph100%30.30 "HgN/A
7:00 AM48 °FOvercast.5 mph94%30.30 "HgN/A
6:30 AM48 °FMostly cloudy.3 mph94%30.30 "HgN/A
6:00 AM48 °FMostly cloudy.3 mph94%30.30 "HgN/A
5:30 AM46 °FOvercast.3 mph100%30.30 "HgN/A
5:00 AM46 °FClear.5 mph93%30.30 "Hg10 mi
4:30 AM45 °FClear.5 mph93%30.30 "Hg10 mi
Weather by CustomWeather, © 2016

See weather overviewHow to use our weather pages